Time,TemperatureF,DewpointF,PressureIn,WindDirection,WindDirectionDegrees,WindSpeedMPH,WindSpeedGustMPH,Humidity,HourlyPrecipIn,Conditions,Clouds,dailyrainin,SolarRadiationWatts/m^2,SoftwareType,DateUTC
2013-04-08 00:03:00,69.6,66.0,29.77,SSE,148,4.0,-999.0,89,-99.99,,,0.00,0,weatherlink.com 1.10,2013-04-08 05:03:00,
2013-04-08 00:18:00,69.9,67.0,29.77,SSE,159,6.0,-999.0,89,-99.99,,,0.00,0,weatherlink.com 1.10,2013-04-08 05:18:00,
2013-04-08 00:33:00,70.3,67.0,29.76,SE,131,6.0,-999.0,89,-99.99,,,0.00,0,weatherlink.com 1.10,2013-04-08 05:33:00,
2013-04-08 00:48:00,70.5,67.0,29.76,SE,126,2.0,-999.0,89,-99.99,,,0.00,0,weatherlink.com 1.10,2013-04-08 05:48:00,
2013-04-08 01:03:00,70.7,67.0,29.76,SE,124,7.0,-999.0,88,-99.99,,,0.00,0,weatherlink.com 1.10,2013-04-08 06:03:00,
2013-04-08 01:18:00,70.5,67.0,29.75,SE,138,6.0,-999.0,89,-99.99,,,0.00,0,weatherlink.com 1.10,2013-04-08 06:18:00,
2013-04-08 01:33:00,70.3,67.0,29.75,SE,126,7.0,-999.0,90,-99.99,,,0.00,0,weatherlink.com 1.10,2013-04-08 06:33:00,
2013-04-08 01:48:00,70.1,67.0,29.74,SE,146,5.0,-999.0,91,-99.99,,,0.00,0,weatherlink.com 1.10,2013-04-08 06:48:00,
2013-04-08 02:03:00,70.0,68.0,29.73,ENE,69,6.0,-999.0,92,-99.99,,,0.00,0,weatherlink.com 1.10,2013-04-08 07:03:00,
2013-04-08 02:18:00,69.9,68.0,29.73,ESE,102,3.0,-999.0,92,-99.99,,,0.00,0,weatherlink.com 1.10,2013-04-08 07:18:00,
2013-04-08 02:33:00,69.8,67.0,29.72,SE,131,4.0,-999.0,92,-99.99,,,0.00,0,weatherlink.com 1.10,2013-04-08 07:33:00,
2013-04-08 02:48:00,69.8,67.0,29.71,SE,139,7.0,-999.0,92,-99.99,,,0.00,0,weatherlink.com 1.10,2013-04-08 07:48:00,
2013-04-08 03:03:00,69.7,68.0,29.70,East,86,6.0,-999.0,93,-99.99,,,0.00,0,weatherlink.com 1.10,2013-04-08 08:03:00,
2013-04-08 03:18:00,69.5,68.0,29.70,SE,136,5.0,-999.0,93,-99.99,,,0.00,0,weatherlink.com 1.10,2013-04-08 08:18:00,
2013-04-08 03:33:00,69.5,68.0,29.70,SE,146,5.0,-999.0,93,-99.99,,,0.00,0,weatherlink.com 1.10,2013-04-08 08:33:00,
2013-04-08 03:48:00,69.6,68.0,29.70,South,176,7.0,-999.0,93,-99.99,,,0.00,0,weatherlink.com 1.10,2013-04-08 08:48:00,
2013-04-08 04:03:00,69.5,68.0,29.69,SSE,155,5.0,-999.0,93,-99.99,,,0.00,0,weatherlink.com 1.10,2013-04-08 09:03:00,
2013-04-08 04:18:00,69.5,68.0,29.68,SSE,150,6.0,-999.0,94,-99.99,,,0.00,0,weatherlink.com 1.10,2013-04-08 09:18:00,
2013-04-08 04:33:00,69.3,68.0,29.68,SE,142,2.0,-999.0,94,-99.99,,,0.00,0,weatherlink.com 1.10,2013-04-08 09:33:00,
2013-04-08 04:48:00,69.2,68.0,29.68,SE,146,5.0,-999.0,94,-99.99,,,0.00,0,weatherlink.com 1.10,2013-04-08 09:48:00,
2013-04-08 05:03:00,69.0,67.0,29.68,SE,124,5.0,-999.0,94,-99.99,,,0.00,0,weatherlink.com 1.10,2013-04-08 10:03:00,
2013-04-08 05:18:00,69.0,67.0,29.68,ESE,119,4.0,-999.0,94,-99.99,,,0.00,0,weatherlink.com 1.10,2013-04-08 10:18:00,
2013-04-08 05:33:00,69.0,67.0,29.69,ESE,123,3.0,-999.0,94,-99.99,,,0.00,0,weatherlink.com 1.10,2013-04-08 10:33:00,
2013-04-08 05:48:00,69.0,67.0,29.69,SSE,154,4.0,-999.0,94,-99.99,,,0.00,0,weatherlink.com 1.10,2013-04-08 10:48:00,
2013-04-08 06:33:00,69.3,68.0,29.70,South,170,1.0,-999.0,94,-99.99,,,0.00,0,weatherlink.com 1.10,2013-04-08 11:33:00,
2013-04-08 06:48:00,69.3,68.0,29.70,SE,140,5.0,-999.0,94,-99.99,,,0.00,0,weatherlink.com 1.10,2013-04-08 11:48:00,
2013-04-08 07:03:00,69.3,68.0,29.71,SE,129,4.0,-999.0,94,-99.99,,,0.00,0,weatherlink.com 1.10,2013-04-08 12:03:00,
2013-04-08 07:19:00,69.3,68.0,29.71,SSE,155,7.0,-999.0,94,-99.99,,,0.00,5,weatherlink.com 1.10,2013-04-08 12:19:00,
2013-04-08 07:49:00,69.5,68.0,29.72,SE,128,1.0,-999.0,94,-99.99,,,0.00,21,weatherlink.com 1.10,2013-04-08 12:49:00,
2013-04-08 08:04:00,69.7,68.0,29.72,SE,144,4.0,-999.0,94,-99.99,,,0.00,37,weatherlink.com 1.10,2013-04-08 13:04:00,
2013-04-08 08:19:00,69.9,68.0,29.73,ESE,108,1.0,-999.0,94,-99.99,,,0.00,35,weatherlink.com 1.10,2013-04-08 13:19:00,
2013-04-08 08:34:00,70.1,68.0,29.73,East,98,1.0,-999.0,93,-99.99,,,0.00,49,weatherlink.com 1.10,2013-04-08 13:34:00,
2013-04-08 08:49:00,70.4,68.0,29.74,NE,54,1.0,-999.0,93,-99.99,,,0.00,86,weatherlink.com 1.10,2013-04-08 13:49:00,
2013-04-08 09:04:00,70.8,68.0,29.75,ESE,106,1.0,-999.0,92,-99.99,,,0.00,54,weatherlink.com 1.10,2013-04-08 14:04:00,
2013-04-08 09:19:00,71.0,68.0,29.75,SSE,156,6.0,-999.0,91,-99.99,,,0.00,72,weatherlink.com 1.10,2013-04-08 14:19:00,
2013-04-08 09:49:00,70.9,69.0,29.75,ESE,119,4.0,-999.0,92,-99.99,,,0.00,49,weatherlink.com 1.10,2013-04-08 14:49:00,
2013-04-08 10:04:00,71.0,68.0,29.75,SE,144,4.0,-999.0,91,-99.99,,,0.00,49,weatherlink.com 1.10,2013-04-08 15:04:00,
2013-04-08 10:34:00,71.4,69.0,29.75,SSE,153,3.0,-999.0,91,-99.99,,,0.00,98,weatherlink.com 1.10,2013-04-08 15:34:00,
2013-04-08 10:49:00,71.9,69.0,29.75,SSE,149,2.0,-999.0,90,-99.99,,,0.00,118,weatherlink.com 1.10,2013-04-08 15:49:00,
2013-04-08 11:04:00,73.0,70.0,29.75,SE,136,8.0,-999.0,89,-99.99,,,0.00,285,weatherlink.com 1.10,2013-04-08 16:04:00,
2013-04-08 11:19:00,75.2,71.0,29.75,SSE,149,4.0,-999.0,86,-99.99,,,0.00,397,weatherlink.com 1.10,2013-04-08 16:19:00,
2013-04-08 11:34:00,76.9,70.0,29.74,East,90,9.0,-999.0,80,-99.99,,,0.00,306,weatherlink.com 1.10,2013-04-08 16:34:00,
2013-04-08 11:49:00,78.2,70.0,29.74,ENE,62,5.0,-999.0,77,-99.99,,,0.00,438,weatherlink.com 1.10,2013-04-08 16:49:00,
2013-04-08 12:04:00,78.7,70.0,29.74,SSE,162,6.0,-999.0,75,-99.99,,,0.00,359,weatherlink.com 1.10,2013-04-08 17:04:00,
2013-04-08 12:19:00,78.0,70.0,29.74,SE,146,9.0,-999.0,76,-99.99,,,0.00,429,weatherlink.com 1.10,2013-04-08 17:19:00,
2013-04-08 12:34:00,78.4,70.0,29.73,SE,134,13.0,-999.0,76,-99.99,,,0.00,654,weatherlink.com 1.10,2013-04-08 17:34:00,
2013-04-08 12:49:00,79.3,70.0,29.72,ENE,73,8.0,-999.0,74,-99.99,,,0.00,471,weatherlink.com 1.10,2013-04-08 17:49:00,
2013-04-08 13:04:00,79.5,70.0,29.71,SSE,151,10.0,-999.0,73,-99.99,,,0.00,543,weatherlink.com 1.10,2013-04-08 18:04:00,
2013-04-08 13:19:00,78.5,70.0,29.71,ENE,74,5.0,-999.0,75,-99.99,,,0.00,538,weatherlink.com 1.10,2013-04-08 18:19:00,
2013-04-08 13:34:00,79.0,70.0,29.70,SSE,166,7.0,-999.0,75,-99.99,,,0.00,473,weatherlink.com 1.10,2013-04-08 18:34:00,
2013-04-08 13:49:00,78.4,70.0,29.70,ENE,71,7.0,-999.0,75,-99.99,,,0.00,529,weatherlink.com 1.10,2013-04-08 18:49:00,
2013-04-08 14:04:00,78.5,70.0,29.69,South,186,12.0,-999.0,75,-99.99,,,0.00,424,weatherlink.com 1.10,2013-04-08 19:04:00,
2013-04-08 14:19:00,78.4,70.0,29.68,South,182,5.0,-999.0,76,-99.99,,,0.00,457,weatherlink.com 1.10,2013-04-08 19:19:00,
2013-04-08 14:34:00,78.2,70.0,29.68,ESE,113,16.0,-999.0,76,-99.99,,,0.00,499,weatherlink.com 1.10,2013-04-08 19:34:00,
2013-04-08 14:50:00,78.0,70.0,29.66,SSE,156,10.0,-999.0,77,-99.99,,,0.00,489,weatherlink.com 1.10,2013-04-08 19:50:00,
2013-04-08 15:04:00,79.0,71.0,29.66,South,171,5.0,-999.0,76,-99.99,,,0.00,705,weatherlink.com 1.10,2013-04-08 20:04:00,
2013-04-08 15:19:00,79.6,71.0,29.65,SSE,166,10.0,-999.0,74,-99.99,,,0.00,740,weatherlink.com 1.10,2013-04-08 20:19:00,
2013-04-08 15:34:00,79.6,71.0,29.64,South,169,13.0,-999.0,74,-99.99,,,0.00,812,weatherlink.com 1.10,2013-04-08 20:34:00,
2013-04-08 15:50:00,79.5,71.0,29.63,SSE,157,10.0,-999.0,74,-99.99,,,0.00,754,weatherlink.com 1.10,2013-04-08 20:50:00,
2013-04-08 16:05:00,79.1,70.0,29.63,SE,136,10.0,-999.0,74,-99.99,,,0.00,338,weatherlink.com 1.10,2013-04-08 21:05:00,
2013-04-08 16:20:00,77.7,70.0,29.63,South,171,13.0,-999.0,77,-99.99,,,0.00,306,weatherlink.com 1.10,2013-04-08 21:20:00,
2013-04-08 16:35:00,77.4,70.0,29.62,SE,136,8.0,-999.0,78,-99.99,,,0.00,684,weatherlink.com 1.10,2013-04-08 21:35:00,
2013-04-08 16:50:00,77.4,70.0,29.62,South,186,4.0,-999.0,77,-99.99,,,0.00,362,weatherlink.com 1.10,2013-04-08 21:50:00,
2013-04-08 17:05:00,77.5,70.0,29.62,ENE,73,5.0,-999.0,78,-99.99,,,0.00,443,weatherlink.com 1.10,2013-04-08 22:05:00,
2013-04-08 17:20:00,77.4,70.0,29.61,East,93,6.0,-999.0,78,-99.99,,,0.00,248,weatherlink.com 1.10,2013-04-08 22:20:00,
2013-04-08 17:35:00,76.9,70.0,29.61,South,176,12.0,-999.0,79,-99.99,,,0.00,418,weatherlink.com 1.10,2013-04-08 22:35:00,
2013-04-08 17:50:00,76.8,70.0,29.61,ESE,121,6.0,-999.0,80,-99.99,,,0.00,381,weatherlink.com 1.10,2013-04-08 22:50:00,
2013-04-08 18:05:00,76.2,70.0,29.61,SSW,196,4.0,-999.0,81,-99.99,,,0.00,142,weatherlink.com 1.10,2013-04-08 23:05:00,
2013-04-08 18:20:00,75.7,70.0,29.61,South,170,4.0,-999.0,83,-99.99,,,0.00,142,weatherlink.com 1.10,2013-04-08 23:20:00,
2013-04-08 18:35:00,75.1,70.0,29.61,SSE,167,12.0,-999.0,84,-99.99,,,0.00,128,weatherlink.com 1.10,2013-04-08 23:35:00,
2013-04-08 18:50:00,74.4,70.0,29.62,SSE,147,3.0,-999.0,86,-99.99,,,0.00,74,weatherlink.com 1.10,2013-04-08 23:50:00,
2013-04-08 19:05:00,74.1,70.0,29.62,SSE,165,6.0,-999.0,87,-99.99,,,0.00,60,weatherlink.com 1.10,2013-04-09 00:05:00,
2013-04-08 19:20:00,73.6,70.0,29.63,East,100,3.0,-999.0,88,-99.99,,,0.00,23,weatherlink.com 1.10,2013-04-09 00:20:00,
2013-04-08 19:35:00,73.2,70.0,29.63,SSE,157,3.0,-999.0,89,-99.99,,,0.00,12,weatherlink.com 1.10,2013-04-09 00:35:00,
2013-04-08 19:50:00,72.7,70.0,29.63,SSE,147,6.0,-999.0,90,-99.99,,,0.00,0,weatherlink.com 1.10,2013-04-09 00:50:00,
2013-04-08 20:05:00,72.5,70.0,29.64,East,96,3.0,-999.0,90,-99.99,,,0.00,0,weatherlink.com 1.10,2013-04-09 01:05:00,
2013-04-08 20:20:00,72.4,70.0,29.64,ESE,107,13.0,-999.0,91,-99.99,,,0.00,0,weatherlink.com 1.10,2013-04-09 01:20:00,
2013-04-08 20:35:00,72.5,70.0,29.65,SE,136,5.0,-999.0,91,-99.99,,,0.00,0,weatherlink.com 1.10,2013-04-09 01:35:00,
2013-04-08 20:50:00,72.6,70.0,29.65,NW,304,3.0,-999.0,91,-99.99,,,0.00,0,weatherlink.com 1.10,2013-04-09 01:50:00,
2013-04-08 21:05:00,72.5,70.0,29.66,SE,145,4.0,-999.0,91,-99.99,,,0.00,0,weatherlink.com 1.10,2013-04-09 02:05:00,
2013-04-08 21:20:00,72.2,70.0,29.66,East,98,3.0,-999.0,91,-99.99,,,0.00,0,weatherlink.com 1.10,2013-04-09 02:20:00,
2013-04-08 21:35:00,71.9,70.0,29.66,SSE,159,4.0,-999.0,92,-99.99,,,0.00,0,weatherlink.com 1.10,2013-04-09 02:35:00,
2013-04-08 21:50:00,71.7,70.0,29.66,East,98,2.0,-999.0,93,-99.99,,,0.00,0,weatherlink.com 1.10,2013-04-09 02:50:00,
2013-04-08 22:05:00,71.7,70.0,29.65,ESE,110,3.0,-999.0,93,-99.99,,,0.00,0,weatherlink.com 1.10,2013-04-09 03:05:00,
2013-04-08 22:20:00,71.8,70.0,29.66,SSE,158,12.0,-999.0,93,-99.99,,,0.00,0,weatherlink.com 1.10,2013-04-09 03:20:00,
2013-04-08 22:35:00,72.0,70.0,29.67,East,98,5.0,-999.0,93,-99.99,,,0.00,0,weatherlink.com 1.10,2013-04-09 03:35:00,
2013-04-08 22:50:00,72.1,70.0,29.66,North,5,2.0,-999.0,93,-99.99,,,0.00,0,weatherlink.com 1.10,2013-04-09 03:50:00,
2013-04-08 23:05:00,72.2,70.0,29.67,SE,141,9.0,-999.0,93,-99.99,,,0.00,0,weatherlink.com 1.10,2013-04-09 04:05:00,
2013-04-08 23:20:00,72.2,70.0,29.67,SSE,158,4.0,-999.0,92,-99.99,,,0.00,0,weatherlink.com 1.10,2013-04-09 04:20:00,
2013-04-08 23:35:00,72.2,70.0,29.67,ESE,114,3.0,-999.0,92,-99.99,,,0.00,0,weatherlink.com 1.10,2013-04-09 04:35:00,
2013-04-08 23:50:00,72.2,70.0,29.67,East,91,4.0,-999.0,92,-99.99,,,0.00,0,weatherlink.com 1.10,2013-04-09 04:50:00,